Weather History for Covington, KY

Change the Weather History Date:

Monday, March 18, 2013

  Actual Average Record
Temperature  
Mean Temperature 42 °F 44 °F  
Max Temperature 50 °F 54 °F 79 °F (2012)
Min Temperature 34 °F 35 °F 8 °F (1941)
Degree Days  
Heating Degree Days 23 21  
Month to date heating degree days 497 428  
Since 1 July heating degree days 4207 4255  
Cooling Degree Days 0 0  
Month to date cooling degree days 0 0  
Year to date cooling degree days 0 0  
Moisture  
Dew Point 40 °F    
Average Humidity 88    
Maximum Humidity 100    
Minimum Humidity 76    
Precipitation  
Precipitation 0.82 in 0.14 in 3.25 in (2008)
Month to date precipitation 3.30 2.14  
Year to date precipitation 8.90 7.95  
Snow  
Snow T in 0.10 in 2.20 in (1981)
Month to date snowfall 5.5 2.1  
Since 1 July snowfall 21.9 20.7  
Snow Depth 0.00 in    
Sea Level Pressure  
Sea Level Pressure 29.75 in    
Wind  
Wind Speed 12 mph (South)    
Max Wind Speed 24 mph    
Max Gust Speed 30 mph    
Visibility 6 miles    
Events Rain , Thunderstorm    
T = Trace of Precipitation, MM = Missing Value Source: NWS Daily Summary

Daily Weather History Graph

Daily Weather History Graph

Search for Another Location

Airport:

Trip Planner

Search our weather history database for the weather conditions in past years. The results will help you decide how hot, cold, wet, or windy it might be!

Date:

Astronomy

Mar. 18, 2013 Rise Set
Actual Time 7:44 AM EDT 7:48 PM EDT
Civil Twilight 7:18 AM EDT 8:15 PM EDT
Nautical Twilight 6:47 AM EDT 8:46 PM EDT
Astronomical Twilight 6:15 AM EDT 9:18 PM EDT
Moon 11:46 AM EDT 1:44 AM EDT
Length of Visible Light 12h 57m
Length of Day
12h 04m
Waxing Crescent, 40% of the Moon is Illuminated
Mar 18
Waxing Crescent
Mar 19
First Quarter
Mar 27
Full
Apr 3
Last Quarter
Apr 10
New

Hourly Weather History & Observations

Time (EDT) Temp. Windchill Dew Point Humidity Pressure Visibility Wind Dir Wind Speed Gust Speed Precip Events Conditions
12:05 AM 33.8 °F 25.3 °F 33.8 °F 100% 29.98 in 4.0 mi ENE 11.5 mph - 0.01 in Rain Light Rain
12:52 AM 35.1 °F 24.8 °F 35.1 °F 100% 29.95 in 5.0 mi ENE 17.3 mph - 0.05 in Rain Light Rain
1:52 AM 35.1 °F 25.2 °F 35.1 °F 100% 29.92 in 3.0 mi East 16.1 mph - 0.08 in Rain Rain
2:24 AM 35.6 °F 25.9 °F 35.6 °F 100% 29.88 in 2.0 mi ENE 16.1 mph 21.9 mph 0.08 in Rain Rain
2:52 AM 35.1 °F 24.1 °F 35.1 °F 100% 29.87 in 2.5 mi East 19.6 mph - 0.14 in Rain Rain
3:22 AM 35.6 °F 27.1 °F 35.6 °F 100% 29.84 in 8.0 mi East 12.7 mph - 0.03 in Rain Light Rain
3:52 AM 35.1 °F 26.4 °F 35.1 °F 100% 29.85 in 8.0 mi ENE 12.7 mph - 0.03 in   Overcast
4:52 AM 36.0 °F 29.6 °F 36.0 °F 100% 29.82 in 8.0 mi North 8.1 mph - N/A   Overcast
5:36 AM 35.6 °F 27.1 °F 35.6 °F 100% 29.78 in 2.5 mi NNE 12.7 mph - 0.14 in Rain Rain
5:52 AM 35.1 °F 23.5 °F 35.1 °F 100% 29.89 in 2.0 mi WNW 21.9 mph 26.5 mph 0.24 in Rain Heavy Rain
5:56 AM 35.6 °F 30.7 °F 35.6 °F 100% 29.84 in 2.0 mi NNW 5.8 mph 26.5 mph 0.02 in Rain , Thunderstorm Heavy Thunderstorms and Rain
6:07 AM 33.8 °F 25.3 °F - N/A% 29.78 in 1.8 mi East 11.5 mph - 0.11 in Rain , Thunderstorm Heavy Thunderstorms with Ice Pellets
6:22 AM 35.6 °F 27.5 °F 35.6 °F 100% 29.75 in 4.0 mi East 11.5 mph - 0.19 in Rain Rain
6:52 AM 35.1 °F 25.9 °F 35.1 °F 100% 29.74 in 4.0 mi ESE 13.8 mph 25.3 mph 0.28 in Rain Rain
7:52 AM 36.0 °F 30.3 °F 36.0 °F 100% 29.74 in 10.0 mi East 6.9 mph - 0.02 in   Overcast
8:36 AM 37.4 °F 30.8 °F 37.4 °F 100% 29.71 in 8.0 mi ESE 9.2 mph - N/A   Overcast
8:52 AM 37.0 °F 31.0 °F 37.0 °F 100% 29.73 in 10.0 mi ESE 8.1 mph - N/A   Overcast
9:34 AM 37.4 °F 30.8 °F 37.4 °F 100% 29.68 in 8.0 mi ESE 9.2 mph - N/A   Overcast
10:24 AM 39.2 °F 33.0 °F 39.2 °F 100% 29.68 in 8.0 mi ESE 9.2 mph - 0.00 in Rain Light Rain
10:52 AM 39.9 °F 34.5 °F 39.9 °F 100% 29.69 in 8.0 mi SSE 8.1 mph - 0.00 in   Overcast
11:52 AM 43.0 °F 37.2 °F 43.0 °F 100% 29.66 in 7.0 mi South 10.4 mph - N/A   Overcast
12:02 PM 42.8 °F 38.0 °F 42.8 °F 100% 29.66 in 2.5 mi South 8.1 mph - 0.00 in   Drizzle
12:24 PM 44.6 °F 41.4 °F 44.6 °F 100% 29.66 in 1.5 mi South 5.8 mph - 0.00 in Rain Light Rain
12:32 PM 44.6 °F 40.7 °F 44.6 °F 100% 29.65 in 0.8 mi South 6.9 mph - 0.01 in Rain Light Rain
12:52 PM 45.0 °F 40.1 °F 45.0 °F 100% 29.67 in 0.8 mi South 9.2 mph - 0.01 in Rain Light Rain
1:52 PM 46.9 °F - 46.0 °F 97% 29.66 in 0.8 mi SW 6.9 mph - 0.03 in Rain Light Rain
2:26 PM 48.2 °F - 46.4 °F 93% 29.63 in 0.8 mi SW 10.4 mph - 0.00 in   Overcast
2:36 PM 48.2 °F - 46.4 °F 93% 29.63 in 6.0 mi WSW 11.5 mph 16.1 mph 0.00 in   Overcast
2:52 PM 48.0 °F - 46.0 °F 93% 29.65 in 7.0 mi SW 11.5 mph - 0.00 in   Overcast
3:41 PM 50.0 °F - 46.4 °F 87% 29.62 in 10.0 mi SSW 9.2 mph - N/A   Overcast
3:52 PM 50.0 °F - 46.9 °F 89% 29.63 in 10.0 mi SSW 8.1 mph - N/A   Overcast
4:09 PM 50.0 °F - 46.4 °F 87% 29.63 in 10.0 mi SW 12.7 mph 19.6 mph N/A   Overcast
4:52 PM 50.0 °F - 46.0 °F 86% 29.65 in 10.0 mi SW 11.5 mph 19.6 mph N/A   Overcast
5:52 PM 50.0 °F - 46.0 °F 86% 29.66 in 10.0 mi SW 10.4 mph - N/A   Overcast
6:30 PM 48.2 °F - 42.8 °F 82% 29.68 in 10.0 mi West 16.1 mph 27.6 mph N/A   Overcast
6:52 PM 48.0 °F - 43.0 °F 83% 29.70 in 10.0 mi West 11.5 mph - N/A   Overcast
7:52 PM 46.0 °F 39.6 °F 41.0 °F 83% 29.75 in 10.0 mi West 15.0 mph 23.0 mph N/A   Overcast
8:52 PM 44.1 °F 38.1 °F 39.0 °F 82% 29.78 in 10.0 mi West 11.5 mph 20.7 mph 0.00 in   Overcast
9:52 PM 43.0 °F 36.4 °F 37.9 °F 82% 29.81 in 9.0 mi West 12.7 mph - 0.00 in   Light Drizzle
10:52 PM 41.0 °F 31.4 °F 34.0 °F 76% 29.84 in 10.0 mi West 21.9 mph 28.8 mph 0.00 in   Overcast
11:52 PM 39.0 °F 31.4 °F 32.0 °F 76% 29.86 in 10.0 mi West 12.7 mph - N/A   Scattered Clouds